TimeCST,TemperatureF,Dew PointF,Humidity,Sea Level PressureIn,VisibilityMPH,Wind Direction,Wind SpeedMPH,Gust SpeedMPH,PrecipitationIn,Events,Conditions,WindDirDegrees,DateUTC
12:53 AM,25.0,21.9,88,30.14,9.0,Calm,Calm,-,N/A,,Clear,0,2013-03-08 06:53:00
1:53 AM,25.0,21.9,88,30.14,8.0,Calm,Calm,-,N/A,,Clear,0,2013-03-08 07:53:00
2:53 AM,28.9,25.0,85,30.13,9.0,Calm,Calm,-,N/A,,Clear,0,2013-03-08 08:53:00
3:53 AM,27.0,24.1,89,30.11,8.0,Calm,Calm,-,N/A,,Clear,0,2013-03-08 09:53:00
4:53 AM,23.0,21.9,96,30.11,6.0,Calm,Calm,-,N/A,,Clear,0,2013-03-08 10:53:00
5:53 AM,23.0,21.0,92,30.11,5.0,Calm,Calm,-,N/A,,Clear,0,2013-03-08 11:53:00
6:53 AM,23.0,21.0,92,30.13,5.0,Calm,Calm,-,N/A,,Clear,0,2013-03-08 12:53:00
7:53 AM,28.0,25.0,88,30.10,4.0,NE,5.8,-,N/A,,Clear,40,2013-03-08 13:53:00
8:53 AM,30.0,27.0,88,30.14,5.0,West,4.6,-,N/A,,Clear,260,2013-03-08 14:53:00
9:53 AM,33.1,27.0,78,30.11,6.0,ENE,3.5,-,N/A,,Haze,60,2013-03-08 15:53:00
10:53 AM,35.1,28.0,76,30.10,7.0,SE,8.1,19.6,0.00,Rain,Light Rain,130,2013-03-08 16:53:00
11:53 AM,41.0,28.9,62,30.05,9.0,East,11.5,-,0.00,,Clear,100,2013-03-08 17:53:00
12:53 PM,45.0,30.0,56,30.04,9.0,SE,12.7,-,N/A,,Clear,140,2013-03-08 18:53:00
1:53 PM,48.0,32.0,54,29.99,9.0,SE,10.4,-,N/A,,Clear,130,2013-03-08 19:53:00
2:53 PM,48.9,34.0,56,29.94,9.0,ESE,11.5,-,N/A,,Clear,110,2013-03-08 20:53:00
3:53 PM,51.1,35.1,54,29.92,10.0,SE,11.5,20.7,N/A,,Clear,130,2013-03-08 21:53:00
4:53 PM,50.0,35.1,57,29.92,7.0,SE,6.9,-,N/A,,Mostly Cloudy,130,2013-03-08 22:53:00
5:53 PM,48.9,36.0,61,29.90,6.0,East,5.8,-,N/A,,Haze,90,2013-03-08 23:53:00
6:53 PM,48.9,37.9,66,29.88,8.0,East,5.8,-,N/A,,Overcast,90,2013-03-09 00:53:00
7:53 PM,48.9,37.9,66,29.87,10.0,East,5.8,-,N/A,,Overcast,100,2013-03-09 01:53:00
8:53 PM,51.1,41.0,68,29.86,10.0,SE,8.1,-,N/A,,Overcast,130,2013-03-09 02:53:00
9:10 PM,51.8,42.8,71,29.82,10.0,SE,8.1,-,N/A,,Overcast,130,2013-03-09 03:10:00
9:53 PM,50.0,42.1,74,29.84,10.0,ESE,11.5,-,N/A,,Overcast,120,2013-03-09 03:53:00
10:53 PM,48.0,46.0,93,29.83,3.0,SE,11.5,-,N/A,,Overcast,140,2013-03-09 04:53:00
11:53 PM,48.0,45.0,89,29.79,7.0,ESE,9.2,-,0.00,,Overcast,120,2013-03-09 05:53:00